HB9ZRH-10 Weather Reports


time (UTC)temp
C
wind
direction
speed
KPH
gust
KPH
rain 1hr
cm
rain 24hr
cm
rain mn
cm
humidity
%
barometer
mb
20260506180856 20 0.0 0.0 0.00 0.00 0.00 46 1009.4
20260506180356 21 0.0 0.0 0.00 0.00 0.00 45 1009.3
20260506175856 21 0.0 0.0 0.00 0.00 0.00 45 1009.2
20260506175356 21 0.0 0.0 0.00 0.00 0.00 46 1009.1
20260506174856 19 0.0 0.0 0.00 0.00 0.00 48 1009.1
20260506174356 19 0.0 0.0 0.00 0.00 0.00 47 1009.0
20260506173856 18 0.0 0.0 0.00 0.00 0.00 47 1008.9
20260506173356 18 0.0 0.0 0.00 0.00 0.00 47 1008.8
20260506172856 21 0.0 0.0 0.00 0.00 0.00 45 1008.7
20260506172356 20 0.0 0.0 0.00 0.00 0.00 46 1008.8
20260506171856 18 0.0 0.0 0.00 0.00 0.00 47 1008.8
20260506171356 20 0.0 0.0 0.00 0.00 0.00 46 1008.7
20260506170856 21 0.0 0.0 0.00 0.00 0.00 46 1008.5
20260506170356 20 0.0 0.0 0.00 0.00 0.00 46 1008.7
20260506165856 20 0.0 0.0 0.00 0.00 0.00 47 1008.6
20260506165356 20 0.0 0.0 0.00 0.00 0.00 47 1008.5
20260506164856 21 0.0 0.0 0.00 0.00 0.00 46 1008.6
20260506164356 22 0.0 0.0 0.00 0.00 0.00 45 1008.5
20260506163856 22 0.0 0.0 0.00 0.00 0.00 45 1008.5
20260506163356 21 0.0 0.0 0.00 0.00 0.00 46 1008.6
20260506162856 22 0.0 0.0 0.00 0.00 0.00 46 1008.7
20260506162356 21 0.0 0.0 0.00 0.00 0.00 46 1008.6
20260506161856 21 0.0 0.0 0.00 0.00 0.00 48 1008.6
20260506161356 19 0.0 0.0 0.00 0.00 0.00 49 1008.7
20260506160856 19 0.0 0.0 0.00 0.00 0.00 48 1008.5
20260506160356 17 0.0 0.0 0.00 0.00 0.00 51 1008.6
20260506155856 16 0.0 0.0 0.00 0.00 0.00 50 1008.6
20260506155356 16 0.0 0.0 0.00 0.00 0.00 50 1008.6
20260506154856 17 0.0 0.0 0.00 0.00 0.00 50 1008.7
20260506154356 18 0.0 0.0 0.00 0.00 0.00 49 1008.6
20260506153856 20 0.0 0.0 0.00 0.00 0.00 48 1008.6
20260506153356 18 0.0 0.0 0.00 0.00 0.00 49 1008.6
20260506152856 18 0.0 0.0 0.00 0.00 0.00 48 1008.6
20260506152356 20 0.0 0.0 0.00 0.00 0.00 48 1008.5
20260506151856 17 0.0 0.0 0.00 0.00 0.00 50 1008.6
20260506151356 18 0.0 0.0 0.00 0.00 0.00 48 1008.6
20260506150856 19 0.0 0.0 0.00 0.00 0.00 47 1008.7
20260506150356 20 0.0 0.0 0.00 0.00 0.00 47 1008.7
20260506145856 18 0.0 0.0 0.00 0.00 0.00 48 1008.8
20260506145356 21 0.0 0.0 0.00 0.00 0.00 47 1008.6
20260506144856 22 0.0 0.0 0.00 0.00 0.00 47 1008.7
20260506144356 22 0.0 0.0 0.00 0.00 0.00 47 1008.7
20260506143856 21 0.0 0.0 0.00 0.00 0.00 47 1008.6
20260506143356 20 0.0 0.0 0.00 0.00 0.00 48 1008.5
20260506142856 21 0.0 0.0 0.00 0.00 0.00 48 1008.5
20260506142356 21 0.0 0.0 0.00 0.00 0.00 49 1008.5
20260506141856 20 0.0 0.0 0.00 0.00 0.00 50 1008.5
20260506141356 17 0.0 0.0 0.00 0.00 0.00 52 1008.5
20260506140856 19 0.0 0.0 0.00 0.00 0.00 50 1008.4
20260506140356 15 0.0 0.0 0.00 0.00 0.00 54 1008.3
20260506135856 17 0.0 0.0 0.00 0.00 0.00 50 1008.3
20260506135356 19 0.0 0.0 0.00 0.00 0.00 50 1008.3
20260506134856 17 0.0 0.0 0.00 0.00 0.00 52 1008.3
20260506134356 17 0.0 0.0 0.00 0.00 0.00 51 1008.2
20260506133856 20 0.0 0.0 0.00 0.00 0.00 49 1008.1
20260506133356 20 0.0 0.0 0.00 0.00 0.00 51 1008.2
20260506132856 18 0.0 0.0 0.00 0.00 0.00 50 1008.3
20260506132356 19 0.0 0.0 0.00 0.00 0.00 52 1008.3
20260506131856 20 0.0 0.0 0.00 0.00 0.00 53 1008.3
20260506131356 16 0.0 0.0 0.00 0.00 0.00 54 1008.3
20260506130856 15 0.0 0.0 0.00 0.00 0.00 54 1008.3
20260506130356 15 0.0 0.0 0.00 0.00 0.00 55 1008.2
20260506125856 13 0.0 0.0 0.00 0.00 0.00 57 1008.0
20260506125356 15 0.0 0.0 0.00 0.00 0.00 55 1007.9
20260506124856 17 0.0 0.0 0.00 0.00 0.00 51 1007.8
20260506124356 16 0.0 0.0 0.00 0.00 0.00 54 1007.7
20260506123856 16 0.0 0.0 0.00 0.00 0.00 55 1007.5
20260506123356 15 0.0 0.0 0.00 0.00 0.00 57 1007.5
20260506122856 15 0.0 0.0 0.00 0.00 0.00 56 1007.1
20260506122356 13 0.0 0.0 0.00 0.00 0.00 56 1007.3
20260506121856 12 0.0 0.0 0.00 0.00 0.00 56 1007.1
20260506121356 13 0.0 0.0 0.00 0.00 0.00 56 1007.0
20260506120856 16 0.0 0.0 0.00 0.00 0.00 54 1006.8
20260506120356 15 0.0 0.0 0.00 0.00 0.00 55 1007.1
20260506115856 14 0.0 0.0 0.00 0.00 0.00 55 1006.9
20260506115356 15 0.0 0.0 0.00 0.00 0.00 54 1006.9
20260506114856 15 0.0 0.0 0.00 0.00 0.00 54 1006.8
20260506114356 16 0.0 0.0 0.00 0.00 0.00 53 1006.9
20260506113856 15 0.0 0.0 0.00 0.00 0.00 53 1006.7
20260506113356 16 0.0 0.0 0.00 0.00 0.00 53 1006.8
20260506112856 16 0.0 0.0 0.00 0.00 0.00 52 1006.7
20260506112356 18 0.0 0.0 0.00 0.00 0.00 51 1006.6
20260506111856 17 0.0 0.0 0.00 0.00 0.00 52 1006.7
20260506111356 15 0.0 0.0 0.00 0.00 0.00 54 1006.8
20260506110856 15 0.0 0.0 0.00 0.00 0.00 53 1006.7
20260506110356 16 0.0 0.0 0.00 0.00 0.00 52 1006.7
20260506105856 16 0.0 0.0 0.00 0.00 0.00 52 1006.8
20260506105356 17 0.0 0.0 0.00 0.00 0.00 50 1006.8
20260506104856 17 0.0 0.0 0.00 0.00 0.00 50 1006.7
20260506104356 18 0.0 0.0 0.00 0.00 0.00 50 1006.7
20260506103856 18 0.0 0.0 0.00 0.00 0.00 50 1006.7
20260506103356 17 0.0 0.0 0.00 0.00 0.00 50 1006.8
20260506102856 16 0.0 0.0 0.00 0.00 0.00 51 1006.8
20260506102356 16 0.0 0.0 0.00 0.00 0.00 51 1006.8
20260506101856 16 0.0 0.0 0.00 0.00 0.00 51 1006.8
20260506101356 17 0.0 0.0 0.00 0.00 0.00 50 1006.7
20260506100856 17 0.0 0.0 0.00 0.00 0.00 50 1006.6
20260506100356 17 0.0 0.0 0.00 0.00 0.00 49 1006.7
20260506095856 17 0.0 0.0 0.00 0.00 0.00 50 1006.7
20260506095356 17 0.0 0.0 0.00 0.00 0.00 49 1006.7
20260506094856 18 0.0 0.0 0.00 0.00 0.00 48 1006.9
20260506094356 19 0.0 0.0 0.00 0.00 0.00 48 1006.9
20260506093856 18 0.0 0.0 0.00 0.00 0.00 48 1006.8
20260506093356 18 0.0 0.0 0.00 0.00 0.00 48 1006.9
20260506092856 18 0.0 0.0 0.00 0.00 0.00 48 1006.9
20260506092356 17 0.0 0.0 0.00 0.00 0.00 49 1006.8
20260506091856 18 0.0 0.0 0.00 0.00 0.00 47 1006.7
20260506091356 19 0.0 0.0 0.00 0.00 0.00 47 1006.7
20260506090856 20 0.0 0.0 0.00 0.00 0.00 46 1006.6
20260506090356 20 0.0 0.0 0.00 0.00 0.00 47 1006.6
20260506085856 18 0.0 0.0 0.00 0.00 0.00 48 1006.5
20260506085356 17 0.0 0.0 0.00 0.00 0.00 47 1006.5
20260506084856 19 0.0 0.0 0.00 0.00 0.00 46 1006.5
20260506084356 20 0.0 0.0 0.00 0.00 0.00 45 1006.7
20260506083856 21 0.0 0.0 0.00 0.00 0.00 45 1006.6
20260506083356 21 0.0 0.0 0.00 0.00 0.00 46 1006.7
20260506082856 20 0.0 0.0 0.00 0.00 0.00 46 1006.6
20260506082356 20 0.0 0.0 0.00 0.00 0.00 46 1006.6
20260506081856 21 0.0 0.0 0.00 0.00 0.00 46 1006.5
20260506081356 21 0.0 0.0 0.00 0.00 0.00 46 1006.5
20260506080856 20 0.0 0.0 0.00 0.00 0.00 46 1006.6
20260506080356 20 0.0 0.0 0.00 0.00 0.00 46 1006.5
20260506073356 20 0.0 0.0 0.00 0.00 0.00 46 1006.6
20260506072856 21 0.0 0.0 0.00 0.00 0.00 46 1006.6
20260506072356 21 0.0 0.0 0.00 0.00 0.00 46 1006.6
20260506071856 21 0.0 0.0 0.00 0.00 0.00 46 1006.6
20260506071356 20 0.0 0.0 0.00 0.00 0.00 47 1006.6
20260506070856 21 0.0 0.0 0.00 0.00 0.00 47 1006.6
20260506070356 21 0.0 0.0 0.00 0.00 0.00 47 1006.6
20260506062356 16 0.0 0.0 0.00 0.00 0.00 52 1006.6
20260506061856 17 0.0 0.0 0.00 0.00 0.00 52 1006.6
20260506061356 16 0.0 0.0 0.00 0.00 0.00 53 1006.7
20260506060856 15 0.0 0.0 0.00 0.00 0.00 54 1006.6
20260506060356 14 0.0 0.0 0.00 0.00 0.00 54 1006.6
20260506051356 12 0.0 0.0 0.00 0.00 0.00 54 1006.8
20260506050856 12 0.0 0.0 0.00 0.00 0.00 54 1006.9
20260506050356 12 0.0 0.0 0.00 0.00 0.00 54 1006.8
20260506044856 12 0.0 0.0 0.00 0.00 0.00 54 1006.8
20260506044356 13 0.0 0.0 0.00 0.00 0.00 53 1006.8
20260506043856 13 0.0 0.0 0.00 0.00 0.00 53 1006.7
20260506043356 13 0.0 0.0 0.00 0.00 0.00 53 1006.8
20260506042856 13 0.0 0.0 0.00 0.00 0.00 53 1006.8
20260506042356 13 0.0 0.0 0.00 0.00 0.00 52 1006.8
20260506041856 13 0.0 0.0 0.00 0.00 0.00 52 1006.8
20260506041356 13 0.0 0.0 0.00 0.00 0.00 52 1006.8
20260506040856 14 0.0 0.0 0.00 0.00 0.00 51 1006.9
20260506040356 14 0.0 0.0 0.00 0.00 0.00 52 1006.9
20260506035856 13 0.0 0.0 0.00 0.00 0.00 52 1007.0
20260506035356 14 0.0 0.0 0.00 0.00 0.00 51 1007.1
20260506034856 15 0.0 0.0 0.00 0.00 0.00 50 1007.2
20260506034356 16 0.0 0.0 0.00 0.00 0.00 49 1007.3
20260506033856 17 0.0 0.0 0.00 0.00 0.00 48 1007.2
20260506033356 19 0.0 0.0 0.00 0.00 0.00 48 1007.1
20260506032856 18 0.0 0.0 0.00 0.00 0.00 48 1007.3
20260506032356 16 0.0 0.0 0.00 0.00 0.00 51 1007.4
20260506031856 13 0.0 0.0 0.00 0.00 0.00 52 1007.5
20260506031356 13 0.0 0.0 0.00 0.00 0.00 52 1007.6
20260506030856 12 0.0 0.0 0.00 0.00 0.00 52 1007.6
20260506030356 13 0.0 0.0 0.00 0.00 0.00 52 1007.6
20260506025856 13 0.0 0.0 0.00 0.00 0.00 51 1007.7
20260506025356 13 0.0 0.0 0.00 0.00 0.00 51 1007.7
20260506024856 13 0.0 0.0 0.00 0.00 0.00 50 1007.7
20260506024356 14 0.0 0.0 0.00 0.00 0.00 50 1007.7
20260506023856 16 0.0 0.0 0.00 0.00 0.00 48 1007.7
20260506023356 16 0.0 0.0 0.00 0.00 0.00 48 1007.8
20260506022856 17 0.0 0.0 0.00 0.00 0.00 48 1007.8
20260506022356 15 0.0 0.0 0.00 0.00 0.00 49 1007.9
20260506021856 14 0.0 0.0 0.00 0.00 0.00 50 1008.0
20260506021356 13 0.0 0.0 0.00 0.00 0.00 49 1008.0
20260506021049 13 0.0 0.0 0.00 0.00 0.00 49 1008.2
20260506015856 13 0.0 0.0 0.00 0.00 0.00 49 1008.2
20260506015356 14 0.0 0.0 0.00 0.00 0.00 47 1008.2
20260506014856 15 0.0 0.0 0.00 0.00 0.00 47 1008.2
20260506014356 17 0.0 0.0 0.00 0.00 0.00 45 1008.2
20260506013856 18 0.0 0.0 0.00 0.00 0.00 44 1008.2
20260506013356 17 0.0 0.0 0.00 0.00 0.00 45 1008.3
20260506012856 16 0.0 0.0 0.00 0.00 0.00 45 1008.3
20260506012356 18 0.0 0.0 0.00 0.00 0.00 43 1008.3
20260506011856 21 0.0 0.0 0.00 0.00 0.00 41 1008.3
20260506011356 23 0.0 0.0 0.00 0.00 0.00 39 1008.2
20260506010856 24 0.0 0.0 0.00 0.00 0.00 39 1008.2
20260506010356 25 0.0 0.0 0.00 0.00 0.00 38 1008.2
20260506005856 25 0.0 0.0 0.00 0.00 0.00 39 1008.2
20260506005356 25 0.0 0.0 0.00 0.00 0.00 39 1008.3
20260506004856 25 0.0 0.0 0.00 0.00 0.00 39 1008.4
20260506004356 25 0.0 0.0 0.00 0.00 0.00 39 1008.4
20260506003856 25 0.0 0.0 0.00 0.00 0.00 39 1008.4
20260506003356 24 0.0 0.0 0.00 0.00 0.00 39 1008.5
20260506002856 24 0.0 0.0 0.00 0.00 0.00 39 1008.6
20260506002356 24 0.0 0.0 0.00 0.00 0.00 39 1008.6
20260506001856 24 0.0 0.0 0.00 0.00 0.00 39 1008.7
20260506001356 24 0.0 0.0 0.00 0.00 0.00 39 1008.8
20260506000856 23 0.0 0.0 0.00 0.00 0.00 39 1008.9
20260506000356 23 0.0 0.0 0.00 0.00 0.00 39 1009.0
20260505235856 25 0.0 0.0 0.00 0.00 0.00 38 1008.9
20260505235356 25 0.0 0.0 0.00 0.00 0.00 38 1008.9
20260505234856 25 0.0 0.0 0.00 0.00 0.00 39 1008.9
20260505234356 25 0.0 0.0 0.00 0.00 0.00 39 1008.9
20260505233856 25 0.0 0.0 0.00 0.00 0.00 39 1008.9
20260505233356 25 0.0 0.0 0.00 0.00 0.00 39 1008.9
20260505232856 23 0.0 0.0 0.00 0.00 0.00 40 1009.0
20260505232356 22 0.0 0.0 0.00 0.00 0.00 40 1009.1
20260505231856 22 0.0 0.0 0.00 0.00 0.00 40 1009.2
20260505231356 24 0.0 0.0 0.00 0.00 0.00 39 1009.1
20260505230856 24 0.0 0.0 0.00 0.00 0.00 39 1009.2
20260505230356 24 0.0 0.0 0.00 0.00 0.00 39 1009.1
20260505225856 24 0.0 0.0 0.00 0.00 0.00 39 1009.2
20260505225356 24 0.0 0.0 0.00 0.00 0.00 39 1009.1
20260505224519 23 0.0 0.0 0.00 0.00 0.00 39 1009.2
20260505224019 23 0.0 0.0 0.00 0.00 0.00 40 1009.1
20260505223519 23 0.0 0.0 0.00 0.00 0.00 40 1009.2
20260505223019 23 0.0 0.0 0.00 0.00 0.00 40 1009.2
20260505222519 23 0.0 0.0 0.00 0.00 0.00 40 1009.1
20260505222019 23 0.0 0.0 0.00 0.00 0.00 40 1009.2
20260505221519 25 0.0 0.0 0.00 0.00 0.00 39 1009.3
20260505221019 25 0.0 0.0 0.00 0.00 0.00 39 1009.1
20260505220519 25 0.0 0.0 0.00 0.00 0.00 39 1009.2
20260505220019 24 0.0 0.0 0.00 0.00 0.00 39 1009.2
20260505215519 25 0.0 0.0 0.00 0.00 0.00 39 1009.4
20260505215019 25 0.0 0.0 0.00 0.00 0.00 40 1009.4
20260505214519 24 0.0 0.0 0.00 0.00 0.00 40 1009.6
20260505214019 24 0.0 0.0 0.00 0.00 0.00 40 1009.7
20260505213519 24 0.0 0.0 0.00 0.00 0.00 40 1009.8
20260505213019 24 0.0 0.0 0.00 0.00 0.00 40 1009.7
20260505212519 24 0.0 0.0 0.00 0.00 0.00 40 1009.8
20260505212019 24 0.0 0.0 0.00 0.00 0.00 40 1009.8
20260505211519 24 0.0 0.0 0.00 0.00 0.00 40 1009.9
20260505211019 25 0.0 0.0 0.00 0.00 0.00 40 1009.9
20260505210519 24 0.0 0.0 0.00 0.00 0.00 40 1009.9
20260505210019 24 0.0 0.0 0.00 0.00 0.00 40 1009.8
20260505205519 24 0.0 0.0 0.00 0.00 0.00 40 1009.9
20260505205019 25 0.0 0.0 0.00 0.00 0.00 39 1009.8
20260505204519 25 0.0 0.0 0.00 0.00 0.00 40 1009.8
20260505204019 25 0.0 0.0 0.00 0.00 0.00 40 1009.9
20260505203519 25 0.0 0.0 0.00 0.00 0.00 40 1009.8
20260505203019 24 0.0 0.0 0.00 0.00 0.00 40 1009.8
20260505202519 25 0.0 0.0 0.00 0.00 0.00 40 1009.8
20260505202019 25 0.0 0.0 0.00 0.00 0.00 40 1009.8
20260505201519 25 0.0 0.0 0.00 0.00 0.00 40 1009.8
20260505201019 25 0.0 0.0 0.00 0.00 0.00 40 1009.8
20260505200519 25 0.0 0.0 0.00 0.00 0.00 40 1009.7
20260505200019 24 0.0 0.0 0.00 0.00 0.00 40 1009.6
20260505195519 23 0.0 0.0 0.00 0.00 0.00 41 1009.5
20260505195019 22 0.0 0.0 0.00 0.00 0.00 41 1009.3
20260505194519 25 0.0 0.0 0.00 0.00 0.00 40 1009.3
20260505194019 25 0.0 0.0 0.00 0.00 0.00 40 1009.2
20260505193519 25 0.0 0.0 0.00 0.00 0.00 41 1009.2
20260505193019 24 0.0 0.0 0.00 0.00 0.00 41 1009.2
20260505192519 24 0.0 0.0 0.00 0.00 0.00 41 1009.2
20260505192019 23 0.0 0.0 0.00 0.00 0.00 42 1009.2
20260505191519 23 0.0 0.0 0.00 0.00 0.00 42 1009.2
20260505191019 23 0.0 0.0 0.00 0.00 0.00 42 1009.1
20260505190519 23 0.0 0.0 0.00 0.00 0.00 41 1009.1
20260505190019 23 0.0 0.0 0.00 0.00 0.00 41 1009.0
20260505185519 24 0.0 0.0 0.00 0.00 0.00 41 1009.0
20260505185019 24 0.0 0.0 0.00 0.00 0.00 41 1008.9
20260505184519 23 0.0 0.0 0.00 0.00 0.00 41 1008.9
20260505184019 24 0.0 0.0 0.00 0.00 0.00 41 1008.8
20260505183519 25 0.0 0.0 0.00 0.00 0.00 41 1008.9
20260505183019 25 0.0 0.0 0.00 0.00 0.00 41 1008.9
20260505182519 25 0.0 0.0 0.00 0.00 0.00 40 1009.0
20260505182019 26 0.0 0.0 0.00 0.00 0.00 40 1009.0
20260505181519 25 0.0 0.0 0.00 0.00 0.00 41 1009.0
20260505181019 26 0.0 0.0 0.00 0.00 0.00 41 1009.1